Location: Unspecified
(0.0000°N, 0.0000°E)
Time: 18:54:11
(UTC+00:00)

Tiros 1 - Pass Details

Date: 21 November 2019
Orbit: 630 x 664 km, 48.4° (Epoch: 06 December)

Event Time Altitude Azimuth Distance (km) Brightness Sun altitude
Rises 23:06:30 0° 293° (WNW) 2,954 - -67.8°
Reaches altitude 10° 23:09:26 10° 275° (W) 2,053 - -68.1°
Maximum altitude 23:12:44 19° 230° (SW) 1,562 - -68.4°
Drops below altitude 10° 23:16:05 10° 185° (S) 2,070 - -68.7°
Sets 23:19:03 0° 167° (SSE) 2,987 - -68.9°
